Weather History for Kingsville NAS, TX

Change the Weather History Date:

Friday, August 16, 2013

  Actual Average Record
Temperature  
Mean Temperature 87 °F -  
Max Temperature 100 °F 94 °F 106 °F (2010)
Min Temperature 75 °F 74 °F 66 °F (2004)
Cooling Degree Days 22    
Growing Degree Days 37 (Base 50)    
Moisture  
Dew Point 75 °F    
Average Humidity 70    
Maximum Humidity 97    
Minimum Humidity 36    
Precipitation  
Precipitation 0.00 in - - ()
Sea Level Pressure  
Sea Level Pressure 29.92 in    
Wind  
Wind Speed 6 mph (SE)    
Max Wind Speed 16 mph    
Max Gust Speed 22 mph    
Visibility 10 miles    
Events Rain    
Averages and records for this station are not official NWS values.
T = Trace of Precipitation, MM = Missing Value Source: NWS Daily Summary

Daily Weather History Graph

Daily Weather History Graph

Search for Another Location

Airport:

Trip Planner

Search our weather history database for the weather conditions in past years. The results will help you decide how hot, cold, wet, or windy it might be!

Date:

Astronomy

Aug. 16, 2013 Rise Set
Actual Time 7:02 AM CDT 8:07 PM CDT
Civil Twilight 6:38 AM CDT 8:32 PM CDT
Nautical Twilight 6:09 AM CDT 9:01 PM CDT
Astronomical Twilight 5:39 AM CDT 9:30 PM CDT
Moon 4:18 PM CDT (8/16) 2:16 AM CDT (8/16)
Length of Visible Light 13h 53m
Length of Day
13h 05m
Waxing Gibbous, 75% of the Moon is Illuminated
Aug 16
Waxing Gibbous
Aug 20
Full
Aug 28
Last Quarter
Sep 5
New
Sep 12
First Quarter

Hourly Weather History & Observations

Time (CDT) Temp. Heat Index Dew Point Humidity Pressure Visibility Wind Dir Wind Speed Gust Speed Precip Events Conditions
12:56 AM 80.1 °F 85.8 °F 77.0 °F 90% 29.96 in 10.0 mi SE 3.5 mph - N/A   Clear
1:56 AM 79.0 °F - 75.9 °F 90% 29.94 in 10.0 mi SE 4.6 mph - N/A   Clear
2:56 AM 80.1 °F 85.8 °F 77.0 °F 90% 29.93 in 10.0 mi South 6.9 mph - N/A   Clear
3:56 AM 78.1 °F - 75.9 °F 93% 29.92 in 10.0 mi Calm Calm - N/A   Clear
4:56 AM 77.0 °F - 75.0 °F 94% 29.92 in 10.0 mi ENE 4.6 mph - N/A   Clear
5:56 AM 77.0 °F - 75.0 °F 94% 29.92 in 10.0 mi East 3.5 mph - N/A   Clear
6:56 AM 75.9 °F - 75.0 °F 97% 29.92 in 9.0 mi East 3.5 mph - N/A   Mostly Cloudy
7:56 AM 78.1 °F - 75.9 °F 93% 29.94 in 8.0 mi Calm Calm - N/A   Mostly Cloudy
8:56 AM 82.9 °F 93.8 °F 79.0 °F 88% 29.95 in 10.0 mi Calm Calm - N/A   Mostly Cloudy
9:56 AM 87.1 °F 97.3 °F 75.9 °F 69% 29.96 in 10.0 mi SE 4.6 mph - N/A   Mostly Cloudy
10:56 AM 89.1 °F 99.1 °F 75.0 °F 63% 29.97 in 10.0 mi South 4.6 mph - N/A   Mostly Cloudy
11:56 AM 93.9 °F 104.0 °F 73.9 °F 52% 29.96 in 10.0 mi Variable 3.5 mph - N/A   Mostly Cloudy
12:56 PM 97.0 °F 104.8 °F 71.1 °F 43% 29.94 in 10.0 mi Variable 4.6 mph - N/A   Mostly Cloudy
1:56 PM 99.0 °F 104.2 °F 68.0 °F 36% 29.92 in 10.0 mi Variable 3.5 mph - N/A   Scattered Clouds
2:56 PM 96.1 °F 108.6 °F 75.0 °F 51% 29.91 in 10.0 mi ESE 12.7 mph 19.6 mph N/A   Mostly Cloudy
3:56 PM 95.0 °F 108.2 °F 75.9 °F 54% 29.89 in 10.0 mi SSE 12.7 mph 20.7 mph N/A   Mostly Cloudy
4:10 PM 96.8 °F 112.2 °F 77.0 °F 53% 29.90 in 10.0 mi SSE 13.8 mph 19.6 mph 0.00 in Rain Light Rain
4:28 PM 96.8 °F 109.6 °F 75.2 °F 50% 29.88 in 10.0 mi SSE 9.2 mph 19.6 mph 0.00 in   Mostly Cloudy
4:56 PM 97.0 °F 107.0 °F 73.0 °F 46% 29.87 in 10.0 mi SSE 15.0 mph 21.9 mph 0.00 in   Scattered Clouds
5:56 PM 95.0 °F 101.3 °F 70.0 °F 44% 29.86 in 10.0 mi SE 16.1 mph - N/A   Scattered Clouds
6:56 PM 91.9 °F 97.4 °F 70.0 °F 48% 29.87 in 10.0 mi ESE 13.8 mph - N/A   Clear
7:56 PM 88.0 °F 94.7 °F 72.0 °F 59% 29.88 in 10.0 mi SE 11.5 mph - N/A   Clear
8:56 PM 84.9 °F 94.1 °F 75.9 °F 74% 29.89 in 10.0 mi SSE 11.5 mph - N/A   Clear
9:56 PM 84.0 °F 93.7 °F 77.0 °F 79% 29.91 in 10.0 mi SSE 12.7 mph - N/A   Clear
10:56 PM 82.9 °F 91.8 °F 77.0 °F 82% 29.95 in 10.0 mi SE 9.2 mph - N/A   Clear
11:56 PM 82.0 °F 90.2 °F 77.0 °F 85% 29.97 in 10.0 mi ESE 6.9 mph - N/A   Mostly Cloudy